Pine Bluff, AR

10:34 PM CDT on March 25, 2017 (GMT -0500)
Grider

Weather History for KPBF - October, 2012

Change the Weather History Date:

Saturday, October 27, 2012

  Actual Average Record
Temperature  
Mean Temperature 48 °F 60 °F  
Max Temperature 56 °F 71 °F 97 °F (1927)
Min Temperature 40 °F 48 °F 31 °F (1898)
Degree Days  
Heating Degree Days 17 7  
Month to date heating degree days 113 97  
Since 1 July heating degree days 115 108  
Cooling Degree Days 0 1  
Month to date cooling degree days 56 71  
Year to date cooling degree days 2378 2115  
Moisture  
Dew Point 34 °F    
Average Humidity 65    
Maximum Humidity 89    
Minimum Humidity 41    
Precipitation  
Precipitation 0.00 in 0.16 in 1.85 in (1918)
Month to date precipitation 2.21 4.36  
Year to date precipitation 38.29 40.24  
Snow  
Snow 0.00 in 0.00 in - ()
Month to date snowfall 0.0 0.0  
Since 1 July snowfall 0.0 0.0  
Since 1 September snowfall 0.0 0.0  
Snow Depth 0.00 in    
Sea Level Pressure  
Sea Level Pressure 30.20 in    
Wind  
Wind Speed 10 mph (North)    
Max Wind Speed 20 mph    
Max Gust Speed 28 mph    
Visibility 10 miles    
Events      
T = Trace of Precipitation, MM = Missing Value Source: NWS Daily Summary

Daily Weather History Graph

Daily Weather History Graph

Search for Another Location

Airport or City:

Trip Planner

Search our weather history database for the weather conditions in past years. The results will help you decide how hot, cold, wet, or windy it might be!

Date:

Astronomy

Oct. 27, 2012 Rise Set
Actual Time 7:23 AM CDT 6:19 PM CDT
Civil Twilight 6:57 AM CDT 6:44 PM CDT
Nautical Twilight 6:28 AM CDT 7:14 PM CDT
Astronomical Twilight 5:59 AM CDT 7:43 PM CDT
Moon 5:02 PM CDT (10/27) 5:22 AM CDT (10/27)
Length of Visible Light 11h 47m
Length of Day
10h 55m
Waxing Gibbous, 96% of the Moon is Illuminated
Oct 27
Waxing Gibbous
Oct 29
Full
Nov 6
Last Quarter
Nov 13
New
Nov 20
First Quarter

Hourly Weather History & Observations

Time (CDT) Temp. Windchill Dew Point Humidity Pressure Visibility Wind Dir Wind Speed Gust Speed Precip Events Conditions
12:53 AM 44.1 °F 40.1 °F 41.0 °F 89% 30.24 in 10.0 mi North 6.9 mph - N/A   Clear
1:53 AM 43.0 °F 37.7 °F 37.0 °F 80% 30.23 in 10.0 mi North 9.2 mph - N/A   Clear
2:53 AM 42.1 °F 35.7 °F 35.1 °F 76% 30.22 in 10.0 mi North 11.5 mph - N/A   Clear
3:53 AM 42.1 °F 35.7 °F 34.0 °F 73% 30.21 in 10.0 mi North 11.5 mph - N/A   Clear
4:53 AM 41.0 °F 34.7 °F 33.1 °F 73% 30.20 in 10.0 mi North 10.4 mph - N/A   Clear
5:53 AM 41.0 °F 34.3 °F 33.1 °F 73% 30.21 in 10.0 mi North 11.5 mph 19.6 mph N/A   Clear
6:53 AM 39.9 °F 32.9 °F 32.0 °F 73% 30.22 in 10.0 mi North 11.5 mph - N/A   Clear
7:53 AM 39.9 °F 33.4 °F 32.0 °F 73% 30.24 in 10.0 mi North 10.4 mph - N/A   Clear
8:53 AM 42.1 °F 34.5 °F 33.1 °F 70% 30.25 in 10.0 mi North 15.0 mph 23.0 mph N/A   Clear
9:53 AM 46.4 °F 40.4 °F 33.8 °F 62% 30.26 in 10.0 mi North 13.8 mph 23.0 mph N/A   Clear
10:53 AM 46.9 °F - 34.0 °F 61% 30.25 in 10.0 mi North 17.3 mph 25.3 mph N/A   Clear
11:53 AM 50.0 °F - 35.1 °F 57% 30.25 in 10.0 mi NNE 16.1 mph 25.3 mph N/A   Clear
12:53 PM 53.1 °F - 35.1 °F 50% 30.22 in 10.0 mi North 11.5 mph - N/A   Clear
1:53 PM 54.0 °F - 32.0 °F 43% 30.18 in 10.0 mi NNW 18.4 mph 25.3 mph N/A   Clear
2:53 PM 55.9 °F - 32.0 °F 40% 30.16 in 10.0 mi North 12.7 mph 21.9 mph N/A   Clear
3:53 PM 55.9 °F - 32.0 °F 40% 30.14 in 10.0 mi North 15.0 mph 20.7 mph N/A   Clear
4:53 PM 55.9 °F - 32.0 °F 40% 30.14 in 10.0 mi North 11.5 mph - N/A   Clear
5:53 PM 53.1 °F - 34.0 °F 48% 30.14 in 10.0 mi North 8.1 mph - N/A   Clear
6:53 PM 48.0 °F - 36.0 °F 63% 30.14 in 10.0 mi North 5.8 mph - N/A   Clear
7:53 PM 46.0 °F 43.9 °F 35.1 °F 66% 30.15 in 10.0 mi NNW 4.6 mph - N/A   Clear
8:53 PM 46.0 °F 43.9 °F 34.0 °F 63% 30.16 in 10.0 mi NNW 4.6 mph - N/A   Clear
9:53 PM 45.0 °F 43.5 °F 35.1 °F 68% 30.17 in 10.0 mi NNW 3.5 mph - N/A   Clear
10:53 PM 44.6 °F - 33.8 °F 66% 30.17 in 10.0 mi Calm Calm - N/A   Clear
11:53 PM 42.1 °F 38.4 °F 33.1 °F 70% 30.17 in 10.0 mi North 5.8 mph - N/A   Clear